Time,TemperatureF,DewpointF,PressureIn,WindDirection,WindDirectionDegrees,WindSpeedMPH,WindSpeedGustMPH,Humidity,HourlyPrecipIn,Conditions,Clouds,dailyrainin,SolarRadiationWatts/m^2,SoftwareType,DateUTC
2013-03-31 00:03:00,48.0,45.0,-100.00,NNE,16,5.0,7.0,89,0.00,,,0.01,0.000000,,2013-03-31 10:03:00,
2013-03-31 00:12:00,48.0,45.0,-100.00,NNE,16,5.0,7.0,89,0.00,,,0.01,0.000000,,2013-03-31 10:12:00,
2013-03-31 00:23:00,48.0,45.0,-100.00,NNE,16,5.0,7.0,89,0.00,,,0.01,0.000000,,2013-03-31 10:23:00,
2013-03-31 00:32:00,48.0,45.0,-100.00,NNE,16,5.0,7.0,89,0.00,,,0.01,0.000000,,2013-03-31 10:32:00,
2013-03-31 00:53:00,50.0,44.0,-100.00,NNE,12,6.0,9.0,81,0.00,,,0.01,0.000000,,2013-03-31 10:53:00,
2013-03-31 01:02:00,50.0,44.0,-100.00,NNE,12,6.0,9.0,81,0.00,,,0.01,0.000000,,2013-03-31 11:02:00,
2013-03-31 01:12:00,50.0,44.0,-100.00,NNE,12,6.0,9.0,81,0.00,,,0.01,0.000000,,2013-03-31 11:12:00,
2013-03-31 01:22:00,50.0,44.0,-100.00,NNE,12,6.0,9.0,81,0.00,,,0.01,0.000000,,2013-03-31 11:22:00,
2013-03-31 01:32:00,50.0,44.0,-100.00,NNE,12,6.0,9.0,81,0.00,,,0.01,0.000000,,2013-03-31 11:32:00,
2013-03-31 01:52:00,48.0,42.0,-100.00,NNE,18,6.0,9.0,81,0.00,,,0.01,0.000000,,2013-03-31 11:52:00,
2013-03-31 02:02:00,48.0,42.0,-100.00,NNE,18,6.0,9.0,81,0.00,,,0.01,0.000000,,2013-03-31 12:02:00,
2013-03-31 02:12:00,48.0,42.0,-100.00,NNE,18,6.0,9.0,81,0.00,,,0.01,0.000000,,2013-03-31 12:12:00,
2013-03-31 02:22:00,48.0,42.0,-100.00,NNE,18,6.0,9.0,81,0.00,,,0.01,0.000000,,2013-03-31 12:22:00,
2013-03-31 02:32:00,48.0,42.0,-100.00,NNE,18,6.0,9.0,81,0.00,,,0.01,0.000000,,2013-03-31 12:32:00,
2013-03-31 02:53:00,48.0,43.0,-100.00,NNE,13,3.0,9.0,82,0.00,,,0.01,0.000000,,2013-03-31 12:53:00,
2013-03-31 03:02:00,48.0,43.0,-100.00,NNE,13,3.0,9.0,82,0.00,,,0.01,0.000000,,2013-03-31 13:02:00,
2013-03-31 03:12:00,48.0,43.0,-100.00,NNE,13,3.0,9.0,82,0.00,,,0.01,0.000000,,2013-03-31 13:12:00,
2013-03-31 03:22:00,48.0,43.0,-100.00,NNE,13,3.0,9.0,82,0.00,,,0.01,0.000000,,2013-03-31 13:22:00,
2013-03-31 03:32:00,48.0,43.0,-100.00,NNE,13,3.0,9.0,82,0.00,,,0.01,0.000000,,2013-03-31 13:32:00,
2013-03-31 03:53:00,47.0,42.0,-100.00,NNE,14,3.0,6.0,83,0.00,,,0.01,0.000000,,2013-03-31 13:53:00,
2013-03-31 04:02:00,47.0,42.0,-100.00,NNE,14,3.0,6.0,83,0.00,,,0.01,0.000000,,2013-03-31 14:02:00,
2013-03-31 04:11:00,47.0,42.0,-100.00,NNE,14,3.0,6.0,83,0.00,,,0.01,0.000000,,2013-03-31 14:11:00,
2013-03-31 04:22:00,47.0,42.0,-100.00,NNE,14,3.0,6.0,83,0.00,,,0.01,0.000000,,2013-03-31 14:22:00,
2013-03-31 04:32:00,47.0,42.0,-100.00,NNE,14,3.0,6.0,83,0.00,,,0.01,0.000000,,2013-03-31 14:32:00,
2013-03-31 04:33:00,47.0,46.0,-100.00,NNE,30,7.0,8.0,95,0.00,,,0.01,0.000000,,2013-03-31 14:33:00,
2013-03-31 04:52:00,47.0,46.0,-100.00,NNE,30,7.0,8.0,95,0.00,,,0.01,0.000000,,2013-03-31 14:52:00,
2013-03-31 05:02:00,47.0,46.0,-100.00,NNE,30,7.0,8.0,95,0.00,,,0.01,0.000000,,2013-03-31 15:02:00,
2013-03-31 05:12:00,47.0,46.0,-100.00,NNE,30,7.0,8.0,95,0.00,,,0.01,0.000000,,2013-03-31 15:12:00,
2013-03-31 05:22:00,47.0,46.0,-100.00,NNE,30,7.0,8.0,95,0.00,,,0.01,0.000000,,2013-03-31 15:22:00,
2013-03-31 05:54:00,50.0,42.0,-100.00,NNE,17,5.0,11.0,75,0.00,,,0.01,0.000000,,2013-03-31 15:54:00,
2013-03-31 06:03:00,50.0,42.0,-100.00,NNE,17,5.0,11.0,75,0.00,,,0.01,0.000000,,2013-03-31 16:03:00,
2013-03-31 06:13:00,50.0,42.0,-100.00,NNE,17,5.0,11.0,75,0.00,,,0.01,0.000000,,2013-03-31 16:13:00,
2013-03-31 06:22:00,50.0,42.0,-100.00,NNE,17,5.0,11.0,75,0.00,,,0.01,0.000000,,2013-03-31 16:22:00,
2013-03-31 06:32:00,50.0,42.0,-100.00,NNE,17,5.0,11.0,75,0.00,,,0.01,0.000000,,2013-03-31 16:32:00,
2013-03-31 06:53:00,47.0,41.0,-100.00,NNE,28,5.0,9.0,79,0.00,,,0.01,0.000000,,2013-03-31 16:53:00,
2013-03-31 07:02:00,47.0,41.0,-100.00,NNE,28,5.0,9.0,79,0.00,,,0.01,0.000000,,2013-03-31 17:02:00,
2013-03-31 07:12:00,47.0,41.0,-100.00,NNE,28,5.0,9.0,79,0.00,,,0.01,0.000000,,2013-03-31 17:12:00,
2013-03-31 07:22:00,47.0,41.0,-100.00,NNE,28,5.0,9.0,79,0.00,,,0.01,0.000000,,2013-03-31 17:22:00,
2013-03-31 07:32:00,47.0,41.0,-100.00,NNE,28,5.0,9.0,79,0.00,,,0.01,0.000000,,2013-03-31 17:32:00,
2013-03-31 07:52:00,54.0,46.0,-100.00,NW,323,2.0,8.0,74,0.00,,,0.01,62.000000,,2013-03-31 17:52:00,
2013-03-31 08:02:00,54.0,46.0,-100.00,NW,323,2.0,8.0,74,0.00,,,0.01,62.000000,,2013-03-31 18:02:00,
2013-03-31 08:12:00,54.0,46.0,-100.00,NW,323,2.0,8.0,74,0.00,,,0.01,62.000000,,2013-03-31 18:12:00,
2013-03-31 08:22:00,54.0,46.0,-100.00,NW,323,2.0,8.0,74,0.00,,,0.01,62.000000,,2013-03-31 18:22:00,
2013-03-31 08:32:00,54.0,46.0,-100.00,NW,323,2.0,8.0,74,0.00,,,0.01,62.000000,,2013-03-31 18:32:00,
2013-03-31 08:53:00,59.0,49.0,-100.00,West,280,5.0,6.0,70,0.00,,,0.00,272.000000,,2013-03-31 18:53:00,
2013-03-31 09:03:00,59.0,49.0,-100.00,West,280,5.0,6.0,70,0.00,,,0.00,272.000000,,2013-03-31 19:03:00,
2013-03-31 09:12:00,59.0,49.0,-100.00,West,280,5.0,6.0,70,0.00,,,0.00,272.000000,,2013-03-31 19:12:00,
2013-03-31 09:22:00,59.0,49.0,-100.00,West,280,5.0,6.0,70,0.00,,,0.00,272.000000,,2013-03-31 19:22:00,
2013-03-31 09:32:00,59.0,49.0,-100.00,West,280,5.0,6.0,70,0.00,,,0.00,272.000000,,2013-03-31 19:32:00,
2013-03-31 09:54:00,59.0,50.0,-100.00,West,268,5.0,10.0,71,0.00,,,0.00,612.000000,,2013-03-31 19:54:00,
2013-03-31 10:02:00,59.0,50.0,-100.00,West,268,5.0,10.0,71,0.00,,,0.00,612.000000,,2013-03-31 20:02:00,
2013-03-31 10:12:00,59.0,50.0,-100.00,West,268,5.0,10.0,71,0.00,,,0.00,612.000000,,2013-03-31 20:12:00,
2013-03-31 10:32:00,59.0,50.0,-100.00,West,268,5.0,10.0,71,0.00,,,0.00,612.000000,,2013-03-31 20:32:00,
2013-03-31 10:33:00,60.0,49.0,-100.00,West,259,5.0,10.0,67,0.00,,,0.00,691.000000,,2013-03-31 20:33:00,
2013-03-31 10:53:00,60.0,49.0,-100.00,West,259,5.0,10.0,67,0.00,,,0.00,691.000000,,2013-03-31 20:53:00,
2013-03-31 11:02:00,60.0,49.0,-100.00,West,259,5.0,10.0,67,0.00,,,0.00,691.000000,,2013-03-31 21:02:00,
2013-03-31 11:12:00,60.0,49.0,-100.00,West,259,5.0,10.0,67,0.00,,,0.00,691.000000,,2013-03-31 21:12:00,
2013-03-31 11:22:00,60.0,49.0,-100.00,West,259,5.0,10.0,67,0.00,,,0.00,691.000000,,2013-03-31 21:22:00,
2013-03-31 11:53:00,63.0,50.0,-100.00,West,264,7.0,14.0,62,0.00,,,0.00,725.000000,,2013-03-31 21:53:00,
2013-03-31 12:03:00,63.0,50.0,-100.00,West,264,7.0,14.0,62,0.00,,,0.00,725.000000,,2013-03-31 22:03:00,
2013-03-31 12:13:00,63.0,50.0,-100.00,West,264,7.0,14.0,62,0.00,,,0.00,725.000000,,2013-03-31 22:13:00,
2013-03-31 12:23:00,63.0,50.0,-100.00,West,264,7.0,14.0,62,0.00,,,0.00,725.000000,,2013-03-31 22:23:00,
2013-03-31 12:32:00,63.0,50.0,-100.00,West,264,7.0,14.0,62,0.00,,,0.00,725.000000,,2013-03-31 22:32:00,
2013-03-31 12:53:00,61.0,47.0,-100.00,WNW,287,8.0,15.0,61,0.00,,,0.00,888.000000,,2013-03-31 22:53:00,
2013-03-31 13:02:00,61.0,47.0,-100.00,WNW,287,8.0,15.0,61,0.00,,,0.00,888.000000,,2013-03-31 23:02:00,
2013-03-31 13:12:00,61.0,47.0,-100.00,WNW,287,8.0,15.0,61,0.00,,,0.00,888.000000,,2013-03-31 23:12:00,
2013-03-31 13:22:00,61.0,47.0,-100.00,WNW,287,8.0,15.0,61,0.00,,,0.00,888.000000,,2013-03-31 23:22:00,
2013-03-31 13:32:00,61.0,47.0,-100.00,WNW,287,8.0,15.0,61,0.00,,,0.00,888.000000,,2013-03-31 23:32:00,
2013-03-31 13:53:00,62.0,47.0,-100.00,WNW,291,10.0,17.0,58,0.00,,,0.00,979.000000,,2013-03-31 23:53:00,
2013-03-31 14:02:00,62.0,47.0,-100.00,WNW,291,10.0,17.0,58,0.00,,,0.00,979.000000,,2013-04-01 00:02:00,
2013-03-31 14:12:00,62.0,47.0,-100.00,WNW,291,10.0,17.0,58,0.00,,,0.00,979.000000,,2013-04-01 00:12:00,
2013-03-31 14:22:00,62.0,47.0,-100.00,WNW,291,10.0,17.0,58,0.00,,,0.00,979.000000,,2013-04-01 00:22:00,
2013-03-31 14:31:00,62.0,47.0,-100.00,WNW,291,10.0,17.0,58,0.00,,,0.00,979.000000,,2013-04-01 00:31:00,
2013-03-31 14:53:00,62.0,45.0,-100.00,WNW,301,9.0,20.0,54,0.00,,,0.00,1351.000000,,2013-04-01 00:53:00,
2013-03-31 15:02:00,62.0,45.0,-100.00,WNW,301,9.0,20.0,54,0.00,,,0.00,1351.000000,,2013-04-01 01:02:00,
2013-03-31 15:12:00,62.0,45.0,-100.00,WNW,301,9.0,20.0,54,0.00,,,0.00,1351.000000,,2013-04-01 01:12:00,
2013-03-31 15:22:00,62.0,45.0,-100.00,WNW,301,9.0,20.0,54,0.00,,,0.00,1351.000000,,2013-04-01 01:22:00,
2013-03-31 15:32:00,62.0,45.0,-100.00,WNW,301,9.0,20.0,54,0.00,,,0.00,1351.000000,,2013-04-01 01:32:00,
2013-03-31 15:53:00,60.0,43.0,-100.00,NNW,329,10.0,17.0,54,0.00,,,0.00,1043.000000,,2013-04-01 01:53:00,
2013-03-31 16:02:00,60.0,43.0,-100.00,NNW,329,10.0,17.0,54,0.00,,,0.00,1043.000000,,2013-04-01 02:02:00,
2013-03-31 16:12:00,60.0,43.0,-100.00,NNW,329,10.0,17.0,54,0.00,,,0.00,1043.000000,,2013-04-01 02:12:00,
2013-03-31 16:22:00,60.0,43.0,-100.00,NNW,329,10.0,17.0,54,0.00,,,0.00,1043.000000,,2013-04-01 02:22:00,
2013-03-31 16:32:00,60.0,43.0,-100.00,NNW,329,10.0,17.0,54,0.00,,,0.00,1043.000000,,2013-04-01 02:32:00,
2013-03-31 16:33:00,62.0,39.0,-100.00,NW,326,9.0,17.0,42,0.00,,,0.00,714.000000,,2013-04-01 02:33:00,
2013-03-31 16:53:00,62.0,39.0,-100.00,NW,326,9.0,17.0,42,0.00,,,0.00,714.000000,,2013-04-01 02:53:00,
2013-03-31 17:02:00,62.0,39.0,-100.00,NW,326,9.0,17.0,42,0.00,,,0.00,714.000000,,2013-04-01 03:02:00,
2013-03-31 17:12:00,62.0,39.0,-100.00,NW,326,9.0,17.0,42,0.00,,,0.00,714.000000,,2013-04-01 03:12:00,
2013-03-31 17:22:00,62.0,39.0,-100.00,NW,326,9.0,17.0,42,0.00,,,0.00,714.000000,,2013-04-01 03:22:00,
2013-03-31 17:53:00,59.0,38.0,-100.00,NW,321,9.0,17.0,45,0.00,,,0.00,494.000000,,2013-04-01 03:53:00,
2013-03-31 18:02:00,59.0,38.0,-100.00,NW,321,9.0,17.0,45,0.00,,,0.00,494.000000,,2013-04-01 04:02:00,
2013-03-31 18:13:00,59.0,38.0,-100.00,NW,321,9.0,17.0,45,0.00,,,0.00,494.000000,,2013-04-01 04:13:00,
2013-03-31 18:23:00,59.0,38.0,-100.00,NW,321,9.0,17.0,45,0.00,,,0.00,494.000000,,2013-04-01 04:23:00,
2013-03-31 18:32:00,59.0,38.0,-100.00,NW,321,9.0,17.0,45,0.00,,,0.00,494.000000,,2013-04-01 04:32:00,
2013-03-31 18:53:00,53.0,39.0,-100.00,NNW,337,8.0,15.0,58,0.00,,,0.00,162.000000,,2013-04-01 04:53:00,
2013-03-31 19:02:00,53.0,39.0,-100.00,NNW,337,8.0,15.0,58,0.00,,,0.00,162.000000,,2013-04-01 05:02:00,
2013-03-31 19:12:00,53.0,39.0,-100.00,NNW,337,8.0,15.0,58,0.00,,,0.00,162.000000,,2013-04-01 05:12:00,
2013-03-31 19:22:00,53.0,39.0,-100.00,NNW,337,8.0,15.0,58,0.00,,,0.00,162.000000,,2013-04-01 05:22:00,
2013-03-31 19:32:00,53.0,39.0,-100.00,NNW,337,8.0,15.0,58,0.00,,,0.00,162.000000,,2013-04-01 05:32:00,
2013-03-31 19:53:00,51.0,41.0,-100.00,North,353,7.0,14.0,69,0.00,,,0.00,19.000000,,2013-04-01 05:53:00,
2013-03-31 20:02:00,51.0,41.0,-100.00,North,353,7.0,14.0,69,0.00,,,0.00,19.000000,,2013-04-01 06:02:00,
2013-03-31 20:12:00,51.0,41.0,-100.00,North,353,7.0,14.0,69,0.00,,,0.00,19.000000,,2013-04-01 06:12:00,
2013-03-31 20:22:00,51.0,41.0,-100.00,North,353,7.0,14.0,69,0.00,,,0.00,19.000000,,2013-04-01 06:22:00,
2013-03-31 20:32:00,51.0,41.0,-100.00,North,353,7.0,14.0,69,0.00,,,0.00,19.000000,,2013-04-01 06:32:00,
2013-03-31 20:52:00,48.0,27.0,-100.00,North,10,7.0,13.0,43,0.00,,,0.00,0.000000,,2013-04-01 06:52:00,
2013-03-31 21:02:00,48.0,27.0,-100.00,North,10,7.0,13.0,43,0.00,,,0.00,0.000000,,2013-04-01 07:02:00,
2013-03-31 21:12:00,48.0,27.0,-100.00,North,10,7.0,13.0,43,0.00,,,0.00,0.000000,,2013-04-01 07:12:00,
2013-03-31 21:22:00,48.0,27.0,-100.00,North,10,7.0,13.0,43,0.00,,,0.00,0.000000,,2013-04-01 07:22:00,
2013-03-31 21:32:00,48.0,27.0,-100.00,North,10,7.0,13.0,43,0.00,,,0.00,0.000000,,2013-04-01 07:32:00,
2013-03-31 21:53:00,47.0,19.0,-100.00,NNE,12,6.0,11.0,33,0.00,,,0.00,0.000000,,2013-04-01 07:53:00,
2013-03-31 22:02:00,47.0,19.0,-100.00,NNE,12,6.0,11.0,33,0.00,,,0.00,0.000000,,2013-04-01 08:02:00,
2013-03-31 22:12:00,47.0,19.0,-100.00,NNE,12,6.0,11.0,33,0.00,,,0.00,0.000000,,2013-04-01 08:12:00,
2013-03-31 22:22:00,47.0,19.0,-100.00,NNE,12,6.0,11.0,33,0.00,,,0.00,0.000000,,2013-04-01 08:22:00,
2013-03-31 22:32:00,47.0,19.0,-100.00,NNE,12,6.0,11.0,33,0.00,,,0.00,0.000000,,2013-04-01 08:32:00,
2013-03-31 22:53:00,45.0,16.0,-100.00,NNE,23,6.0,10.0,31,0.00,,,0.00,0.000000,,2013-04-01 08:53:00,
2013-03-31 23:02:00,45.0,16.0,-100.00,NNE,23,6.0,10.0,31,0.00,,,0.00,0.000000,,2013-04-01 09:02:00,
2013-03-31 23:12:00,45.0,16.0,-100.00,NNE,23,6.0,10.0,31,0.00,,,0.00,0.000000,,2013-04-01 09:12:00,
2013-03-31 23:22:00,45.0,16.0,-100.00,NNE,23,6.0,10.0,31,0.00,,,0.00,0.000000,,2013-04-01 09:22:00,
2013-03-31 23:32:00,45.0,16.0,-100.00,NNE,23,6.0,10.0,31,0.00,,,0.00,0.000000,,2013-04-01 09:32:00,
2013-03-31 23:33:00,44.0,11.0,-100.00,NNE,31,6.0,9.0,26,0.00,,,0.00,0.000000,,2013-04-01 09:33:00,
2013-03-31 23:53:00,44.0,11.0,-100.00,NNE,31,6.0,9.0,26,0.00,,,0.00,0.000000,,2013-04-01 09:53:00,